Location: Buchberg
(46.9333°N, 15.8500°E)
Time: 19:39:26
(UTC+00:00)

DELTA 2 DEB (DPAF) - Pass Details

Date: 14 July 2020
Orbit: 640 x 647 km, 98.3° (Epoch: 05 August)

Event Time Altitude Azimuth Distance (km) Brightness Sun altitude
Exits shadow 00:46:49 35° 207° (SSW) 1,048 4.7 -17.5°
Maximum altitude 00:48:19 50° 260° (W) 826 4.4 -17.4°
Drops below altitude 10° 00:52:40 10° 336° (NNW) 2,052 7.3 -17.1°
Sets 00:54:57 0° 342° (NNW) 2,966 8.2 -16.9°
